Flag for U.S.A. Weather past 2 weeks in Cedar Rapids, Iowa, U.S.A.

Now
59 °F

Sunny.


Feels Like: 59 °F
Forecast: 32 / 65 °F
Wind: 5 mph from East

Location: Cedar Rapids Municipal Airport

Current Time: Apr 27, 2015 at 2:00:24 PM

Latest Report: Apr 27, 2015 at 12:52 PM


Visibility: 10 mi

Pressure: 30.17 "Hg

Humidity: 44%

Dew point: 37 °F

Location of Cedar RapidsLocation

Historic Weather in Cedar Rapids — Graph

°F

Cedar Rapids temperature yesterday

Maximum temperature yesterday: 60 °F (at 5:52 PM)
Minimum temperature yesterday: 37 °F (at 5:52 AM)
Average temperature yesterday: 49 °F

Past Weeks' High & Low Weather Summary

 TemperatureHumidityPressure
High78 °F (Apr 18, 2:52 PM)100% (Apr 13, 2:52 AM)30.30 "Hg (Apr 13, 2:52 AM)
Low24 °F (Apr 23, 3:52 AM)14% (Apr 23, 5:52 PM)29.42 "Hg (Apr 20, 2:52 AM)
Average51 °F60%29.93 "Hg
* Reported Apr 12 12:52 PM — Apr 27 12:52 PM, Cedar Rapids, Weather by CustomWeather, © 2015

Note: Actual official high and low records may vary slightly from our data, if they occured in-between our weather recording intervals... More about our weather records

Advertising

Cedar Rapids weather history for previous 24 hours

 ConditionsComfort  
Time TempWeatherWind HumidityBarometerVisibility
12:52 PM
Mon, Apr 27
59 °FSunny.5 mph44%30.17 "Hg10 mi
9:52 AM51 °FSunny.8 mph59%30.19 "Hg10 mi
8:52 AM47 °FSunny.7 mph66%30.17 "Hg10 mi
7:52 AM43 °FSunny.8 mph71%30.16 "Hg10 mi
6:52 AM38 °FClear.6 mph76%30.14 "Hg10 mi
5:52 AM38 °FClear.7 mph76%30.11 "Hg10 mi
4:52 AM36 °FClear.8 mph79%30.09 "Hg10 mi
3:52 AM36 °FClear.8 mph82%30.07 "Hg10 mi
2:52 AM38 °FClear.9 mph79%30.07 "Hg10 mi
1:52 AM40 °FClear.8 mph73%30.09 "Hg10 mi
12:52 AM42 °FClear.3 mph65%30.09 "Hg10 mi
11:52 PM
Sun, Apr 26
42 °FClear.7 mph71%30.08 "Hg10 mi
10:52 PM47 °FClear.3 mph56%30.07 "Hg10 mi
9:52 PM50 °FClear.No wind48%30.06 "Hg10 mi
8:52 PM52 °FSunny.6 mph43%30.05 "Hg10 mi
7:52 PM54 °FSunny.6 mph43%30.03 "Hg10 mi
6:52 PM58 °FSunny.7 mph36%30.01 "Hg10 mi
5:52 PM60 °FSunny.8 mph35%30.01 "Hg10 mi
4:52 PM59 °FSunny.6 mph35%30.01 "Hg10 mi
3:52 PM59 °FSunny.9 mph36%30.02 "Hg10 mi
2:52 PM58 °FSunny.8 mph41%30.04 "Hg10 mi
Weather by CustomWeather, © 2015

See weather overviewHow to use our weather pages